This is the latest recevied weather packets stored in our database for station/object K8RRT. If no packets are shown the sender has not sent any weather packets the latest 10 day(s).
| Time | Temp. | Humidity | Pressure | Rain* | Wind** | Luminosity | Snow |
|---|---|---|---|---|---|---|---|
| 1777753243 | 12.78° C | 47% | 1011.3 hPa | 0 mm | - | 294 W/m² | - |
| 1777752938 | 12.22° C | 51% | 1011.3 hPa | 0 mm | - | 291 W/m² | - |
| 1777752635 | 11.67° C | 48% | 1011.2 hPa | 0 mm | - | 105 W/m² | - |
| 1777752331 | 11.67° C | 48% | 1011.2 hPa | 0 mm | - | 111 W/m² | - |
| 1777752029 | 12.22° C | 47% | 1011.2 hPa | 0 mm | - | 147 W/m² | - |
| 1777751726 | 12.22° C | 48% | 1011.4 hPa | 0 mm | - | 206 W/m² | - |
| 1777751422 | 12.22° C | 51% | 1011.4 hPa | 0 mm | - | 324 W/m² | - |
| 1777751119 | 11.67° C | 48% | 1011.6 hPa | 0 mm | - | 183 W/m² | - |
| 1777750815 | 11.67° C | 49% | 1011.4 hPa | 0 mm | - | 143 W/m² | - |
| 1777750512 | 11.67° C | 47% | 1011.5 hPa | 0 mm | - | 135 W/m² | - |
| 1777750209 | 12.22° C | 46% | 1011.5 hPa | 0 mm | - | 163 W/m² | - |
| 1777749905 | 12.22° C | 49% | 1011.6 hPa | 0 mm | - | 212 W/m² | - |
| 1777749602 | 12.78° C | 46% | 1011.6 hPa | 0 mm | - | 236 W/m² | - |
| 1777749299 | 12.22° C | 48% | 1011.6 hPa | 0 mm | - | 248 W/m² | - |
| 1777748997 | 12.22° C | 48% | 1011.6 hPa | 0 mm | - | 253 W/m² | - |
| 1777748694 | 12.22° C | 51% | 1011.7 hPa | 0 mm | - | 505 W/m² | - |
| 1777748390 | 12.22° C | 48% | 1011.8 hPa | 0 mm | - | 368 W/m² | - |
| 1777748086 | 11.67° C | 52% | 1011.9 hPa | 0 mm | - | 355 W/m² | - |
| 1777747783 | 11.67° C | 49% | 1012 hPa | 0 mm | - | 186 W/m² | - |
| 1777747478 | 12.78° C | 47% | 1011.9 hPa | 0 mm | - | 210 W/m² | - |
| 1777747175 | 12.78° C | 51% | 1011.8 hPa | 0 mm | - | 306 W/m² | - |
| 1777746871 | 13.33° C | 52% | 1011.9 hPa | 0 mm | - | 362 W/m² | - |
| 1777746566 | 12.22° C | 47% | 1012.1 hPa | 0 mm | - | 431 W/m² | - |
| 1777746262 | 12.22° C | 50% | 1012 hPa | 0 mm | - | 337 W/m² | - |
| 1777745959 | 12.22° C | 50% | 1012.1 hPa | 0 mm | - | 386 W/m² | - |
* Rain latest hour (hover to see other rain measurements)
** Current wind speed in m/s (hover to see current wind gust speed)